TimeCST,TemperatureF,Dew PointF,Humidity,Sea Level PressureIn,VisibilityMPH,Wind Direction,Wind SpeedMPH,Gust SpeedMPH,PrecipitationIn,Events,Conditions,WindDirDegrees,DateUTC
12:50 AM,28.4,28.4,100,30.31,10.0,Calm,Calm,-,N/A,,Clear,0,2014-01-01 06:50:00
1:50 AM,26.6,26.6,100,30.30,10.0,Calm,Calm,-,N/A,,Clear,0,2014-01-01 07:50:00
2:15 AM,24.8,24.8,100,30.28,10.0,ESE,4.6,-,N/A,,Clear,110,2014-01-01 08:15:00
2:35 AM,26.6,24.8,93,30.29,9.0,Calm,Calm,-,N/A,,Clear,0,2014-01-01 08:35:00
2:55 AM,26.6,26.6,100,30.28,10.0,Calm,Calm,-,N/A,,Clear,0,2014-01-01 08:55:00
3:15 AM,24.8,24.8,100,30.27,10.0,ESE,3.5,-,N/A,,Clear,110,2014-01-01 09:15:00
3:35 AM,24.8,24.8,100,30.26,10.0,SE,3.5,-,N/A,,Clear,130,2014-01-01 09:35:00
3:55 AM,24.8,23.0,93,30.26,10.0,SE,4.6,-,N/A,,Clear,140,2014-01-01 09:55:00
4:15 AM,26.6,26.6,100,30.26,10.0,SE,5.8,-,N/A,,Clear,130,2014-01-01 10:15:00
4:35 AM,26.6,24.8,93,30.26,10.0,ESE,3.5,-,N/A,,Clear,120,2014-01-01 10:35:00
4:55 AM,26.6,24.8,93,30.25,10.0,Calm,Calm,-,N/A,,Clear,0,2014-01-01 10:55:00
5:30 AM,26.6,24.8,93,30.26,10.0,Calm,Calm,-,N/A,,Clear,0,2014-01-01 11:30:00
5:55 AM,24.8,24.8,100,30.26,10.0,Calm,Calm,-,N/A,,Clear,0,2014-01-01 11:55:00
6:55 AM,24.8,24.8,100,30.25,10.0,East,3.5,-,N/A,,Clear,100,2014-01-01 12:55:00
7:55 AM,28.4,26.6,93,30.25,10.0,ESE,3.5,-,N/A,,Clear,110,2014-01-01 13:55:00
8:55 AM,33.8,30.2,87,30.24,10.0,Variable,5.8,-,N/A,,Clear,0,2014-01-01 14:55:00
9:55 AM,39.2,32.0,75,30.24,10.0,South,6.9,-,N/A,,Clear,170,2014-01-01 15:55:00
10:55 AM,44.6,33.8,66,30.22,10.0,Variable,6.9,-,N/A,,Clear,0,2014-01-01 16:55:00
11:55 AM,48.2,33.8,58,30.18,10.0,South,8.1,-,N/A,,Clear,170,2014-01-01 17:55:00
12:50 PM,50.0,33.8,54,30.14,10.0,SSW,5.8,-,N/A,,Partly Cloudy,210,2014-01-01 18:50:00
1:50 PM,53.6,33.8,47,30.11,10.0,Calm,Calm,-,N/A,,Partly Cloudy,0,2014-01-01 19:50:00
2:50 PM,53.6,32.0,44,30.08,10.0,Calm,Calm,-,N/A,,Partly Cloudy,0,2014-01-01 20:50:00
3:50 PM,53.6,32.0,44,30.06,10.0,SSE,6.9,-,N/A,,Scattered Clouds,150,2014-01-01 21:50:00
4:50 PM,50.0,32.0,50,30.04,10.0,SSE,4.6,-,N/A,,Scattered Clouds,150,2014-01-01 22:50:00
5:50 PM,50.0,33.8,54,30.01,10.0,ESE,9.2,-,N/A,,Overcast,120,2014-01-01 23:50:00
6:50 PM,48.2,35.6,62,30.02,10.0,SE,5.8,-,N/A,,Overcast,130,2014-01-02 00:50:00
7:50 PM,48.2,35.6,62,29.99,10.0,SE,8.1,-,N/A,,Mostly Cloudy,140,2014-01-02 01:50:00
8:50 PM,48.2,37.4,66,29.98,10.0,SSE,6.9,-,N/A,,Mostly Cloudy,150,2014-01-02 02:50:00
9:50 PM,48.2,39.2,71,29.97,10.0,SSE,8.1,-,N/A,,Overcast,160,2014-01-02 03:50:00
10:50 PM,48.2,42.8,82,29.96,10.0,SSE,5.8,-,N/A,,Overcast,160,2014-01-02 04:50:00
11:50 PM,48.2,42.8,82,29.95,10.0,South,4.6,-,N/A,,Overcast,170,2014-01-02 05:50:00